Terug naar catalogus

NOAA 16 DEB

ActiefSSO
NORAD 42429·DEBRIS·🇺🇸 United States

Gelanceerd Sep 21, 2000 vanaf Vandenberg Space Force Base

Loading…

Volgende Passages (komende 24 uur)

TLE

VersSource: Space-Track

Epoch: Sep 12, 2026, 11:24 UTC

1 42429U 00055TZ  26255.47539662  .00004738  00000-0  15978-2 0  9997
2 42429  98.8288 344.0736 0022568 267.7937  92.0664 14.37331270518795

Volg NOAA 16 DEB in realtime met AllMySat

Download on the App Store